リニア彗星

176P/(118401) LINEAR (2011)

English version
Home page
Updated on January 8, 2012

---------------------------------------------------------------------

・ プロフィール

・ 写真集

・ 軌道要素

Epoch 2011 July 18.0 TT = JDT 2455760.5
T 2011 June 30.93888 TT                                 MPC
q   2.5764091            (2000.0)            P               Q
n   0.17232798     Peri.   35.59354     +0.92682179     -0.37550025
a   3.1981502      Node   346.46159     +0.34355688     +0.84900724
e   0.1944065      Incl.    0.23560     +0.15155869     +0.37173414
P   5.72
From 275 observations 1999 Aug. 17-2011 Sept. 5, mean residual 0".5.

・ 光度変化

        H = 15.6  G = 0.15

---------------------------------------------------------------------

軌道要素はM.P.E.C. 2011-R35に掲載されたものです。
光度グラフはComet for Windowsで作成したものです。

---------------------------------------------------------------------

Copyright(C) Seiichi Yoshida (comet@aerith.net). All rights reserved.